Content
SEND FEEDBACK

Daily
Averages
Monthly
Summary
United States of America

GREENSBORO, NORTH CAROLINA


Home > North America > United States > North Carolina
Elevation: 886 feet     Latitude: 36 05N     Longitude: 079 57W

WEATHER
 
SELECT A DAY
Number of Records: 102,443;   Date Range: 1/1/95 - 7/7/14
 
SHARE

PRINT THIS DATA

[ ← Previous Day ]
WEATHER ALMANAC - JANUARY 30, 2013
[ Next Day → ]
[ °C ]   °F
Weather ElementAverageHighLow
Temperature65.1 °F71.6 °F (3:20 pm)57 °F (11:54 pm)
Dewpoint59.8 °F62.6 °F (12:03 pm)55 °F (11:54 pm)
Humidity83.3 %94 % (9:20 pm)63 % (4:54 pm)
Barometer29.69 in29.98 in (1:54 am)29.37 in (8:54 pm)
Wind Speed19.8 mph28.8 mph (9:54 pm)
Wind Gust41.4 mph (8:54 pm)
Weather ElementAverage
Visibility8.4 mi
Wind DirectionSSW (197.9 °)

Weather ElementTotal
Precipitation1.84 in
Heating Degree Days0.7 (Base 65)
Growing Degree Days14.3 (Base 50)
Averaged from 34 records on January 30, 2013
WEATHER CONDITIONS BREAKOUT
WIND DIRECTION BREAKOUT
WEATHER BY HOUR - JANUARY 30, 2013
[ °C ]   °F
Local TimeTemperatureDewpointHumidityBarometerVisibilityWind DirectionWind SpeedGust SpeedPrecipitationEventsConditions
1:54 AM62.1 °F57.0 °F84 %29.98 in10.0 miSSW (200°)15.0 mph21.9 mphMostly Cloudy
2:40 AM62.6 °F57.2 °F82 %29.98 in10.0 miSSW (200°)13.8 mphOvercast
2:54 AM62.1 °F57.9 °F86 %29.96 in10.0 miSSW (200°)15.0 mphOvercast
3:54 AM63.0 °F57.9 °F84 %29.94 in10.0 miSSW (200°)15.0 mphOvercast
4:54 AM63.0 °F59.0 °F87 %29.91 in10.0 miSouth (190°)13.8 mphOvercast
5:54 AM63.0 °F59.0 °F87 %29.90 in10.0 miSSW (200°)11.5 mph21.9 mphOvercast
6:46 AM64.4 °F59.0 °F83 %29.90 in10.0 miSSW (200°)19.6 mph26.5 mphOvercast
6:54 AM64.0 °F59.0 °F84 %29.87 in10.0 miSouth (190°)17.3 mph26.5 mphOvercast
7:35 AM64.4 °F60.8 °F88 %29.88 in10.0 miSouth (190°)15.0 mphOvercast
7:54 AM64.9 °F60.1 °F84 %29.85 in10.0 miSouth (190°)16.1 mph25.3 mphOvercast
8:54 AM66.0 °F61.0 °F84 %29.83 in10.0 miSouth (180°)20.7 mph36.8 mphOvercast
9:54 AM64.9 °F62.1 °F90 %29.83 in10.0 miSSW (200°)16.1 mph23.0 mph0.00 inOvercast
10:54 AM64.9 °F62.1 °F90 %29.83 in10.0 miSSW (200°)20.7 mph27.6 mph0.00 inOvercast
11:54 AM64.9 °F62.1 °F90 %29.77 in6.0 miSSW (200°)19.6 mph27.6 mph0.00 inRainLight Rain
12:03 PM66.2 °F62.6 °F88 %29.78 in8.0 miSSW (200°)19.6 mph25.3 mphOvercast
12:15 PM66.2 °F62.6 °F88 %29.78 in10.0 miSSW (200°)21.9 mph31.1 mphOvercast
12:54 PM66.9 °F62.1 °F84 %29.73 in10.0 miSouth (190°)19.6 mph34.5 mph0.00 inOvercast
1:39 PM66.2 °F62.6 °F88 %29.70 in10.0 miSouth (190°)19.6 mph29.9 mph0.00 inOvercast
1:54 PM68.0 °F62.1 °F81 %29.67 in10.0 miSSW (200°)21.9 mph34.5 mph0.00 inOvercast
2:54 PM70.0 °F60.1 °F71 %29.63 in10.0 miSouth (190°)20.7 mph35.7 mphOvercast
3:20 PM71.6 °F60.8 °F69 %29.64 in10.0 miSouth (180°)27.6 mph35.7 mphMostly Cloudy
3:54 PM71.1 °F59.0 °F66 %29.59 in10.0 miSouth (180°)19.6 mph29.9 mphMostly Cloudy
4:54 PM71.1 °F57.9 °F63 %29.56 in10.0 miSouth (180°)24.2 mph35.7 mphMostly Cloudy
5:54 PM70.0 °F57.0 °F63 %29.52 in10.0 miSouth (180°)21.9 mph35.7 mphMostly Cloudy
6:54 PM69.1 °F55.9 °F63 %29.46 in10.0 miSouth (170°)24.2 mph36.8 mphOvercast
7:54 PM64.9 °F59.0 °F81 %29.44 in4.0 miSouth (180°)26.5 mph35.7 mph0.01 inRainLight Rain
8:23 PM64.4 °F60.8 °F88 %29.43 in4.0 miSouth (180°)20.7 mph34.5 mph0.05 inRainRain
8:54 PM66.0 °F60.1 °F81 %29.37 in6.0 miSouth (190°)27.6 mph41.4 mph0.09 inRainLight Rain
9:11 PM64.4 °F60.8 °F88 %29.45 in1.2 miWest (260°)24.2 mph38.0 mph0.05 inRainRain
9:20 PM62.6 °F60.8 °F94 %29.45 in1.8 miSW (230°)16.1 mph28.8 mph0.36 inRainHeavy Rain
9:35 PM62.6 °F60.8 °F94 %29.43 in4.0 miSSW (210°)17.3 mph29.9 mph0.49 inRainRain
9:54 PM62.1 °F60.1 °F93 %29.43 in5.0 miSW (220°)28.8 mph40.3 mph0.54 inRainHeavy Rain
10:54 PM60.1 °F57.9 °F93 %29.43 in4.0 miSW (220°)21.9 mph33.4 mph0.15 inRainRain
11:54 PM57.0 °F55.0 °F93 %29.43 in10.0 miWSW (240°)18.4 mph26.5 mph0.10 inRainLight Rain
Hourly data recorded from KGSO, located miles away from Greensboro, North Carolina







STORIES FROM OUR PARTNERS